GW3215 Weather Reports


Display with metric or nautical units.
time (UTC)temp
F
wind
direction
speed
MPH
gust
MPH
rain 1hr
in
rain 24hr
in
rain mn
in
humidity
%
barometer
mb
20260508224503 67 194 0.0 1.0 0.00 0.00 0.00 70 1014.2
20260508223009 68 194 0.0 2.0 0.00 0.00 0.00 68 1014.2
20260508221510 68 225 0.0 2.0 0.00 0.00 0.00 68 1014.2
20260508220011 69 234 0.0 2.0 0.00 0.00 0.00 66 1014.2
20260508214504 69 232 0.0 2.0 0.00 0.00 0.00 65 1014.1
20260508213004 70 180 0.0 3.0 0.00 0.00 0.00 63 1014.1
20260508211509 70 212 1.0 4.0 0.00 0.00 0.00 56 1014.3
20260508210018 70 128 0.0 3.0 0.00 0.00 0.00 59 1014.1
20260508204504 70 252 1.0 7.0 0.00 0.00 0.00 56 1014.1
20260508203004 70 122 0.0 2.0 0.00 0.00 0.00 58 1014.2
20260508201509 71 146 0.0 5.0 0.00 0.00 0.00 56 1014.4
20260508200012 72 207 1.0 4.0 0.00 0.00 0.00 55 1014.5
20260508194518 71 261 2.0 8.0 0.00 0.00 0.00 52 1014.8
20260508193005 70 113 1.0 6.0 0.00 0.00 0.00 53 1015.1
20260508191515 71 197 1.0 6.0 0.00 0.00 0.00 54 1015.4
20260508190012 72 115 1.0 3.0 0.00 0.00 0.00 53 1015.4
20260508184519 74 154 1.0 5.0 0.00 0.00 0.00 54 1015.6
20260508183022 72 180 2.0 7.0 0.00 0.00 0.00 52 1016.0
20260508181504 70 158 0.0 2.0 0.00 0.00 0.00 58 1016.1
20260508180010 71 180 1.0 3.0 0.00 0.00 0.00 54 1016.1
20260508174524 71 186 0.0 4.0 0.00 0.00 0.00 53 1016.5
20260508173021 71 136 2.0 6.0 0.00 0.00 0.00 53 1016.7
20260508171522 69 156 1.0 5.0 0.00 0.00 0.00 56 1016.8
20260508170006 69 165 0.0 4.0 0.00 0.00 0.00 57 1017.2
20260508164510 70 14 2.0 8.0 0.00 0.00 0.00 52 1017.3
20260508163022 70 139 1.0 4.0 0.00 0.00 0.00 55 1017.3
20260508161528 69 229 2.0 4.0 0.00 0.00 0.00 55 1017.5
20260508160023 69 138 0.0 5.0 0.00 0.00 0.00 57 1017.7
20260508154509 66 238 1.0 4.0 0.00 0.00 0.00 59 1018.1
20260508153016 67 132 1.0 7.0 0.00 0.00 0.00 59 1018.3
20260508151516 68 142 2.0 7.0 0.00 0.00 0.00 61 1018.3
20260508150025 67 268 1.0 4.0 0.00 0.00 0.00 62 1018.1
20260508144524 66 136 1.0 4.0 0.00 0.00 0.00 63 1017.9
20260508143012 64 60 1.0 3.0 0.00 0.00 0.00 67 1017.9
20260508141515 64 352 2.0 9.0 0.00 0.00 0.00 67 1018.0
20260508140026 63 40 3.0 7.0 0.00 0.00 0.00 72 1018.3
20260508134509 60 23 1.0 7.0 0.00 0.02 0.00 79 1018.2
20260508133009 58 56 0.0 5.0 0.00 0.05 0.00 88 1018.3
20260508131513 55 15 2.0 5.0 0.00 0.08 0.00 93 1018.2
20260508130018 53 5 0.0 3.0 0.00 0.10 0.00 95 1018.1
20260508124508 52 21 0.0 4.0 0.00 0.15 0.00 95 1017.8
20260508123008 51 23 2.0 4.0 0.00 0.21 0.00 95 1017.6
20260508121510 51 289 0.0 0.0 0.00 0.32 0.00 95 1017.5
20260508120015 49 289 0.0 0.0 0.00 0.43 0.00 94 1017.4
20260508114520 49 289 0.0 0.0 0.00 0.54 0.00 94 1017.1
20260508113006 47 289 0.0 0.0 0.00 0.60 0.00 94 1016.9
20260508111507 47 289 0.0 0.0 0.00 0.65 0.00 93 1016.5
20260508110017 47 289 0.0 0.0 0.00 0.68 0.00 93 1016.1
20260508104516 47 289 0.0 0.0 0.00 0.70 0.00 93 1016.0
20260508103028 47 289 0.0 1.0 0.00 0.70 0.00 93 1015.7
20260508101507 48 289 0.0 0.0 0.00 0.70 0.00 93 1015.6
20260508100008 48 289 0.0 0.0 0.00 0.70 0.00 93 1015.3
20260508094513 48 289 0.0 1.0 0.00 0.70 0.00 93 1015.2
20260508093016 48 289 0.0 0.0 0.00 0.71 0.00 92 1015.1
20260508091530 48 289 0.0 0.0 0.00 0.71 0.00 92 1015.0
20260508090006 48 289 0.0 0.0 0.00 0.71 0.00 92 1014.9
20260508084512 48 289 0.0 0.0 0.00 0.72 0.00 92 1014.5
20260508083013 48 289 0.0 0.0 0.00 0.73 0.00 92 1014.5
20260508081548 49 289 0.0 0.0 0.00 0.75 0.00 92 1014.6
20260508080024 49 289 0.0 0.0 0.00 0.77 0.00 92 1014.4
20260508074525 49 289 0.0 0.0 0.00 0.78 0.00 92 1014.5
20260508073015 50 289 0.0 0.0 0.00 0.78 0.00 91 1014.6
20260508071534 50 289 0.0 1.0 0.00 0.79 0.00 92 1014.6
20260508070024 50 284 0.0 0.0 0.00 0.82 0.00 91 1014.5
20260508064524 51 284 0.0 0.0 0.00 0.86 0.00 91 1014.4
20260508063043 51 284 0.0 0.0 0.00 0.88 0.00 90 1014.3
20260508061517 52 284 0.0 0.0 0.00 0.94 0.00 90 1014.2
20260508060002 52 284 0.0 0.0 0.00 1.03 0.00 90 1014.3
20260508054507 52 284 0.0 0.0 0.00 1.11 0.00 90 1014.5
20260508053007 53 284 0.0 0.0 0.00 1.27 0.00 90 1014.6
20260508051512 53 284 0.0 0.0 0.00 1.49 0.00 90 1014.6
20260508050013 54 284 0.0 0.0 0.00 1.58 0.00 89 1014.5
20260508044503 54 284 0.0 0.0 0.00 1.60 0.00 89 1014.4
20260508043003 55 284 0.0 0.0 0.00 1.61 0.00 88 1014.3
20260508041507 56 284 0.0 0.0 0.00 1.74 0.00 86 1014.2
20260508040014 57 284 0.0 0.0 0.00 1.86 0.00 83 1014.0
20260508034516 58 284 0.0 0.0 0.00 1.93 1.86 83 1013.8
20260508033024 58 284 0.0 0.0 0.00 1.93 1.86 82 1014.0
20260508031508 59 284 0.0 0.0 0.00 1.93 1.86 81 1014.1
20260508030011 60 284 0.0 2.0 0.00 1.94 1.86 79 1013.6
20260508024531 61 26 0.0 1.0 0.00 1.97 1.86 77 1013.5
20260508023025 63 26 0.0 0.0 0.00 2.01 1.86 73 1013.2
20260508021524 64 26 0.0 3.0 0.00 2.01 1.86 70 1013.2
20260508020010 64 223 0.0 4.0 0.00 2.04 1.86 69 1012.8
20260508014514 65 205 2.0 5.0 0.00 2.06 1.86 68 1012.3
20260508013017 65 222 1.0 6.0 0.00 2.09 1.86 67 1011.9
20260508011521 67 173 3.0 9.0 0.00 2.29 1.86 64 1011.8
20260508010032 68 327 2.0 9.0 0.00 2.52 1.86 63 1011.4
20260508004509 68 155 1.0 6.0 0.00 2.58 1.86 65 1011.3
20260508003015 70 190 2.0 7.0 0.00 2.58 1.86 63 1010.9
20260508001519 70 250 3.0 9.0 0.00 2.58 1.86 61 1010.5
20260508000023 71 219 2.0 10.0 0.00 2.58 1.86 61 1010.1
20260507234526 71 231 4.0 11.0 0.00 2.58 1.86 61 1010.0
20260507233033 72 184 3.0 8.0 0.00 2.58 1.86 64 1009.7
20260507231532 74 273 1.0 9.0 0.00 2.58 1.86 64 1009.6
20260507230005 73 261 4.0 12.0 0.00 2.58 1.86 64 1009.4